Regional Weather Roundup
Issued by NWS Lake Charles, LA

Home | Current Version | Previous Version | Text Only | Print | Product List | Glossary On
Versions: 1 2 3 4 5 6 7 8 9 10 11 12 13 14 15 16 17 18 19 20 21 22 23 24 25 26 27 28 29 30 31 32 33 34 35 36 37 38 39 40 41 42 43 44 45 46 47 48 49 50
000
ASUS44 KLCH 260210
RWRLCH
RWRLCH
REGIONAL WEATHER ROUNDUP
NATIONAL WEATHER SERVICE LAKE CHARLES LA
900 PM CDT MON MAY 25 2015

Note: "fair" indicates few or no clouds below 12,000 feet with no
significant weather and/or obstructions to visibility.


ACROSS SOUTHEAST TEXAS

CITY           SKY/WX    TMP DP  RH WIND       PRES   REMARKS
BEAUMONT       CLOUDY    81  76  84 S15G23    29.91S
BEAUMONT CITY  CLOUDY    80  76  88 S12G17    29.91F
ORANGE         CLOUDY    81  75  83 SE13G18   29.94S
JASPER         CLOUDY    81  75  82 CALM      29.97R
$$

ACROSS CENTRAL LOUISIANA

CITY           SKY/WX    TMP DP  RH WIND       PRES   REMARKS
LEESVILLE      CLOUDY    79  74  83 S13       29.95R
FULLERTON        N/A     82  73  74 VRB5      29.93R
ALEXANDRIA INT LGT RAIN  74  72  93 SE8       29.96R FOG
ESLER FIELD    LGT RAIN  76  71  85 S8        30.00R
DERIDDER       MOCLDY    80  74  83 SE6       29.95F
OAKDALE        CLOUDY    79  75  89 SE3       29.97R
OPELOUSAS      MOCLDY   N/A N/A N/A E6        29.98F
$$

ACROSS SOUTHWEST AND SOUTH CENTRAL LOUISIANA

CITY           SKY/WX    TMP DP  RH WIND       PRES   REMARKS
SULPHUR        CLOUDY    82  76  83 SE17      29.95S
LAKE CHARLES   CLOUDY    81  75  82 S13       29.94F
CHENNAULT INT  NOT AVBL
CAMERON PHI    MOCLDY    82  77  83 S18G24    29.98R
DEQUINCY         N/A     79  78  97 SE8       29.94S
JENNINGS         N/A     80  75  86 S9        29.97R
LAFAYETTE      TSTM      76  73  91 CALM      29.99R FOG
NEW IBERIA     LGT RAIN  78  74  87 E9        29.98R
ABBEVILLE      MOCLDY    80  76  88 S8        29.98S
PATTERSON      MOCLDY    79  73  83 SE9       30.01R
SALT POINT       N/A     81  77  88 VRB5      29.97R
$$

SELECTED SITES ACROSS THE REGION

CITY           SKY/WX    TMP DP  RH WIND       PRES   REMARKS
HOUSTON BUSH   TSTM      70  64  83 NW21G29   29.95R
HOUSTON HOBBY  CLOUDY    82  76  81 SE12      29.88S THUNDER
GALVESTON      CLOUDY    81  79  94 SE13      29.91R
COLLEGE STAT   CLOUDY    67  65  93 SE8       29.90S THUNDER
CONROE         TSTM      65  63  93 W9        29.94R FOG
HUNTSVILLE     TSTM      65  63  93 SE3       29.93F
LUFKIN         TSTM      67  63  87 E5        29.96F FOG
SHREVEPORT     TSTM      64  61  90 NW5       29.99S
MONROE         LGT RAIN  72  70  93 CALM      29.98R
NATCHEZ MS     MOCLDY    72  68  88 SE8       30.00S
BATON ROUGE    CLOUDY    74  70  87 E8        30.01R
N.O. INTL ARPT MOCLDY    73  69  87 SE6       30.03R
SLIDELL        LGT RAIN  73  70  90 E6        30.04S
$$

MARINE REPORTS

STATION/POSITION TIME  TEMP    WIND        PRES    VSBY  WAVE
                       AIR SEA DIR/SP/G                  HT/PER
                 (UTC) (F)     (DEG/KT/KT) (MB)    (MI)  (FT/S)
BUOY 30 S HIGH I 0150   81 81  150/ 14/ 17 1012.4R         4/ 6
SEA RIM ST PARK  0200   81     160/ 14/ 16 1013.7R
PORT ARTHUR      0100      77  150/  9/ 13 1013.6R
SABINE PASS N    0100   81 80  160/ 15/ 21 1013.4R
TEXAS POINT      NOT AVBL
CALCASIEU PASS   0100   81 81  170/ 16/ 20   N/A
LK CHARLES BEACH 0100   82 78              1014.2R
MARSH ISLAND     0100   82     170/ 20/ 23   N/A           1
FRESH WATER LOCK 0100   81 82  150/ 12/ 18 1014.7R
AMERADA PASS     0100   82 80  150/  7/ 12 1015.3R
$$



USA.gov is the U.S. government's official web portal to all federal, state and local government web resources and services.